Time,TemperatureF,DewpointF,PressureIn,WindDirection,WindDirectionDegrees,WindSpeedMPH,WindSpeedGustMPH,Humidity,HourlyPrecipIn,Conditions,Clouds,dailyrainin,SoftwareType,DateUTC
2013-04-26 00:01:00,45.2,39.7,30.36,WNW,302,0.0,0.0,81,0.00,,---,0.00,VWS V14.01,2013-04-26 04:01:00,
2013-04-26 00:06:00,45.2,39.7,30.36,WNW,302,0.0,0.0,81,0.00,,---,0.00,VWS V14.01,2013-04-26 04:06:00,
2013-04-26 00:11:00,45.1,39.9,30.36,WNW,302,0.0,0.0,82,0.00,,---,0.00,VWS V14.01,2013-04-26 04:11:00,
2013-04-26 00:16:00,45.0,39.8,30.36,WNW,302,0.0,0.0,82,0.00,,---,0.00,VWS V14.01,2013-04-26 04:16:00,
2013-04-26 00:21:00,44.9,40.1,30.36,WNW,302,0.0,0.0,83,0.00,,---,0.00,VWS V14.01,2013-04-26 04:21:00,
2013-04-26 00:26:00,44.8,40.0,30.36,WNW,302,0.0,0.0,83,0.00,,---,0.00,VWS V14.01,2013-04-26 04:26:00,
2013-04-26 00:31:00,44.6,39.8,30.36,WNW,302,0.0,0.0,83,0.00,,---,0.00,VWS V14.01,2013-04-26 04:31:00,
2013-04-26 00:36:00,44.5,39.7,30.36,WNW,302,0.0,0.0,83,0.00,,---,0.00,VWS V14.01,2013-04-26 04:36:00,
2013-04-26 00:41:00,44.3,39.8,30.36,WNW,302,0.0,0.0,84,0.00,,---,0.00,VWS V14.01,2013-04-26 04:41:00,
2013-04-26 00:46:00,44.2,39.7,30.36,WNW,302,0.0,0.0,84,0.00,,---,0.00,VWS V14.01,2013-04-26 04:46:00,
2013-04-26 00:51:00,44.1,39.6,30.36,WNW,302,0.0,0.0,84,0.00,,---,0.00,VWS V14.01,2013-04-26 04:51:00,
2013-04-26 00:56:00,44.0,39.5,30.36,WNW,302,0.0,0.0,84,0.00,,---,0.00,VWS V14.01,2013-04-26 04:56:00,
2013-04-26 01:01:00,43.8,39.3,30.36,WNW,302,0.0,0.0,84,0.00,,---,0.00,VWS V14.01,2013-04-26 05:01:00,
2013-04-26 01:06:00,43.6,39.1,30.37,WNW,302,0.0,0.0,84,0.00,,---,0.00,VWS V14.01,2013-04-26 05:06:00,
2013-04-26 01:11:00,43.4,38.9,30.37,WNW,302,0.0,0.0,84,0.00,,---,0.00,VWS V14.01,2013-04-26 05:11:00,
2013-04-26 01:16:00,43.2,40.2,30.37,WNW,302,0.0,0.0,89,0.00,,---,0.00,VWS V14.01,2013-04-26 05:16:00,
2013-04-26 01:21:00,43.0,38.8,30.37,WNW,302,0.0,0.0,85,0.00,,---,0.00,VWS V14.01,2013-04-26 05:21:00,
2013-04-26 01:26:00,42.8,38.6,30.37,WNW,302,0.0,0.0,85,0.00,,---,0.00,VWS V14.01,2013-04-26 05:26:00,
2013-04-26 01:31:00,42.7,38.5,30.37,WNW,302,0.0,0.0,85,0.00,,---,0.00,VWS V14.01,2013-04-26 05:31:00,
2013-04-26 01:36:00,42.5,38.3,30.37,WNW,302,0.0,0.0,85,0.00,,---,0.00,VWS V14.01,2013-04-26 05:36:00,
2013-04-26 01:41:00,42.3,38.1,30.37,WNW,302,0.0,0.0,85,0.00,,---,0.00,VWS V14.01,2013-04-26 05:41:00,
2013-04-26 01:46:00,42.1,37.9,30.36,WNW,302,0.0,0.0,85,0.00,,---,0.00,VWS V14.01,2013-04-26 05:46:00,
2013-04-26 01:51:00,41.9,37.7,30.36,WNW,302,0.0,0.0,85,0.00,,---,0.00,VWS V14.01,2013-04-26 05:51:00,
2013-04-26 01:56:00,41.7,37.5,30.37,WNW,302,0.0,0.0,85,0.00,,---,0.00,VWS V14.01,2013-04-26 05:56:00,
2013-04-26 02:01:00,41.5,37.3,30.37,WNW,302,0.0,0.0,85,0.00,,---,0.00,VWS V14.01,2013-04-26 06:01:00,
2013-04-26 02:06:00,41.2,37.0,30.37,WNW,302,0.0,0.0,85,0.00,,---,0.00,VWS V14.01,2013-04-26 06:06:00,
2013-04-26 02:11:00,41.0,37.1,30.37,WNW,302,0.0,0.0,86,0.00,,---,0.00,VWS V14.01,2013-04-26 06:11:00,
2013-04-26 02:16:00,40.8,36.9,30.37,WNW,302,0.0,0.0,86,0.00,,---,0.00,VWS V14.01,2013-04-26 06:16:00,
2013-04-26 02:21:00,40.5,36.7,30.37,WNW,302,0.0,0.0,86,0.00,,---,0.00,VWS V14.01,2013-04-26 06:21:00,
2013-04-26 02:26:00,40.2,36.3,30.37,WNW,302,0.0,0.0,86,0.00,,---,0.00,VWS V14.01,2013-04-26 06:26:00,
2013-04-26 02:31:00,40.0,36.2,30.37,WNW,302,0.0,0.0,86,0.00,,---,0.00,VWS V14.01,2013-04-26 06:31:00,
2013-04-26 02:36:00,39.7,35.9,30.37,WNW,302,0.0,0.0,86,0.00,,---,0.00,VWS V14.01,2013-04-26 06:36:00,
2013-04-26 02:41:00,39.5,35.7,30.37,WNW,302,0.0,0.0,86,0.00,,---,0.00,VWS V14.01,2013-04-26 06:41:00,
2013-04-26 02:46:00,39.3,35.5,30.37,WNW,302,0.0,0.0,86,0.00,,---,0.00,VWS V14.01,2013-04-26 06:46:00,
2013-04-26 02:51:00,39.0,35.2,30.37,WNW,302,0.0,0.0,86,0.00,,---,0.00,VWS V14.01,2013-04-26 06:51:00,
2013-04-26 02:56:00,38.8,35.0,30.38,WNW,302,0.0,0.0,86,0.00,,---,0.00,VWS V14.01,2013-04-26 06:56:00,
2013-04-26 03:01:00,38.6,34.8,30.38,WNW,302,0.0,0.0,86,0.00,,---,0.00,VWS V14.01,2013-04-26 07:01:00,
2013-04-26 03:06:00,38.4,34.9,30.38,WNW,302,0.0,0.0,87,0.00,,---,0.00,VWS V14.01,2013-04-26 07:06:00,
2013-04-26 03:11:00,38.2,34.7,30.38,WNW,302,0.0,0.0,87,0.00,,---,0.00,VWS V14.01,2013-04-26 07:11:00,
2013-04-26 03:16:00,38.1,34.6,30.38,WNW,302,0.0,0.0,87,0.00,,---,0.00,VWS V14.01,2013-04-26 07:16:00,
2013-04-26 03:21:00,38.0,34.5,30.38,WNW,302,0.0,0.0,87,0.00,,---,0.00,VWS V14.01,2013-04-26 07:21:00,
2013-04-26 03:26:00,37.9,34.4,30.38,WNW,302,0.0,0.0,87,0.00,,---,0.00,VWS V14.01,2013-04-26 07:26:00,
2013-04-26 03:31:00,37.8,34.3,30.38,WNW,302,0.0,0.0,87,0.00,,---,0.00,VWS V14.01,2013-04-26 07:31:00,
2013-04-26 03:36:00,37.7,34.2,30.38,WNW,302,0.0,0.0,87,0.00,,---,0.00,VWS V14.01,2013-04-26 07:36:00,
2013-04-26 03:41:00,37.7,34.2,30.38,WNW,302,0.0,0.0,87,0.00,,---,0.00,VWS V14.01,2013-04-26 07:41:00,
2013-04-26 03:46:00,37.6,34.4,30.38,WNW,302,0.0,0.0,88,0.00,,---,0.00,VWS V14.01,2013-04-26 07:46:00,
2013-04-26 03:51:00,37.5,34.3,30.39,WNW,302,0.0,0.0,88,0.00,,---,0.00,VWS V14.01,2013-04-26 07:51:00,
2013-04-26 03:56:00,37.4,34.2,30.39,WNW,302,0.0,0.0,88,0.00,,---,0.00,VWS V14.01,2013-04-26 07:56:00,
2013-04-26 04:01:00,37.3,34.1,30.39,WNW,302,0.0,0.0,88,0.00,,---,0.00,VWS V14.01,2013-04-26 08:01:00,
2013-04-26 04:06:00,37.2,34.0,30.39,WNW,302,0.0,0.0,88,0.00,,---,0.00,VWS V14.01,2013-04-26 08:06:00,
2013-04-26 04:11:00,37.1,33.9,30.39,WNW,302,0.0,0.0,88,0.00,,---,0.00,VWS V14.01,2013-04-26 08:11:00,
2013-04-26 04:16:00,37.0,33.8,30.39,WNW,302,0.0,0.0,88,0.00,,---,0.00,VWS V14.01,2013-04-26 08:16:00,
2013-04-26 04:21:00,36.9,33.7,30.39,WNW,302,0.0,0.0,88,0.00,,---,0.00,VWS V14.01,2013-04-26 08:21:00,
2013-04-26 04:26:00,36.8,33.6,30.39,WNW,302,0.0,0.0,88,0.00,,---,0.00,VWS V14.01,2013-04-26 08:26:00,
2013-04-26 04:31:00,36.6,33.4,30.39,WNW,302,0.0,0.0,88,0.00,,---,0.00,VWS V14.01,2013-04-26 08:31:00,
2013-04-26 04:36:00,36.5,33.3,30.39,WNW,302,0.0,0.0,88,0.00,,---,0.00,VWS V14.01,2013-04-26 08:36:00,
2013-04-26 04:41:00,36.3,33.1,30.39,WNW,302,0.0,0.0,88,0.00,,---,0.00,VWS V14.01,2013-04-26 08:41:00,
2013-04-26 04:46:00,36.1,32.9,30.39,WNW,302,0.0,0.0,88,0.00,,---,0.00,VWS V14.01,2013-04-26 08:46:00,
2013-04-26 04:51:00,36.0,32.8,30.39,WNW,302,0.0,0.0,88,0.00,,---,0.00,VWS V14.01,2013-04-26 08:51:00,
2013-04-26 04:56:00,35.8,32.6,30.39,WNW,302,0.0,0.0,88,0.00,,---,0.00,VWS V14.01,2013-04-26 08:56:00,
2013-04-26 05:01:00,35.6,32.4,30.40,WNW,302,0.0,0.0,88,0.00,,---,0.00,VWS V14.01,2013-04-26 09:01:00,
2013-04-26 05:06:00,35.5,32.3,30.40,WNW,302,0.0,0.0,88,0.00,,---,0.00,VWS V14.01,2013-04-26 09:06:00,
2013-04-26 05:11:00,35.3,32.1,30.40,WNW,302,0.0,0.0,88,0.00,,---,0.00,VWS V14.01,2013-04-26 09:11:00,
2013-04-26 05:16:00,35.1,31.9,30.40,WNW,302,0.0,0.0,88,0.00,,---,0.00,VWS V14.01,2013-04-26 09:16:00,
2013-04-26 05:21:00,35.0,31.8,30.40,WNW,302,0.0,0.0,88,0.00,,---,0.00,VWS V14.01,2013-04-26 09:21:00,
2013-04-26 05:26:00,34.8,31.6,30.40,WNW,302,0.0,0.0,88,0.00,,---,0.00,VWS V14.01,2013-04-26 09:26:00,
2013-04-26 05:31:00,34.6,31.7,30.40,WNW,302,0.0,0.0,89,0.00,,---,0.00,VWS V14.01,2013-04-26 09:31:00,
2013-04-26 05:36:00,34.4,31.5,30.40,WNW,302,0.0,0.0,89,0.00,,---,0.00,VWS V14.01,2013-04-26 09:36:00,
2013-04-26 05:41:00,34.2,31.3,30.41,WNW,302,0.0,0.0,89,0.00,,---,0.00,VWS V14.01,2013-04-26 09:41:00,
2013-04-26 05:46:00,34.1,31.2,30.41,WNW,302,0.0,0.0,89,0.00,,---,0.00,VWS V14.01,2013-04-26 09:46:00,
2013-04-26 05:51:00,33.9,31.0,30.41,WNW,302,0.0,0.0,89,0.00,,---,0.00,VWS V14.01,2013-04-26 09:51:00,
2013-04-26 05:56:00,33.8,30.9,30.41,WNW,302,0.0,0.0,89,0.00,,---,0.00,VWS V14.01,2013-04-26 09:56:00,
2013-04-26 06:01:00,33.6,30.7,30.41,WNW,302,0.0,0.0,89,0.00,,---,0.00,VWS V14.01,2013-04-26 10:01:00,
2013-04-26 06:06:00,33.5,30.6,30.41,WNW,302,0.0,0.0,89,0.00,,---,0.00,VWS V14.01,2013-04-26 10:06:00,
2013-04-26 06:11:00,33.3,30.4,30.41,WNW,302,0.0,0.0,89,0.00,,---,0.00,VWS V14.01,2013-04-26 10:11:00,
2013-04-26 06:16:00,33.2,30.3,30.41,WNW,302,0.0,0.0,89,0.00,,---,0.00,VWS V14.01,2013-04-26 10:16:00,
2013-04-26 06:21:00,33.0,30.1,30.41,WNW,302,0.0,0.0,89,0.00,,---,0.00,VWS V14.01,2013-04-26 10:21:00,
2013-04-26 06:26:00,32.9,30.0,30.42,WNW,302,0.0,0.0,89,0.00,,---,0.00,VWS V14.01,2013-04-26 10:26:00,
2013-04-26 06:31:00,32.8,29.9,30.42,WNW,302,0.0,0.0,89,0.00,,---,0.00,VWS V14.01,2013-04-26 10:31:00,
2013-04-26 06:36:00,32.6,29.7,30.42,WNW,302,0.0,0.0,89,0.00,,---,0.00,VWS V14.01,2013-04-26 10:36:00,
2013-04-26 06:41:00,32.5,29.6,30.43,WNW,302,0.0,0.0,89,0.00,,---,0.00,VWS V14.01,2013-04-26 10:41:00,
2013-04-26 06:46:00,32.4,29.5,30.43,WNW,302,0.0,0.0,89,0.00,,---,0.00,VWS V14.01,2013-04-26 10:46:00,
2013-04-26 06:51:00,32.3,29.4,30.43,WNW,302,0.0,0.0,89,0.00,,---,0.00,VWS V14.01,2013-04-26 10:51:00,
2013-04-26 06:56:00,32.2,29.3,30.43,WNW,302,0.0,0.0,89,0.00,,---,0.00,VWS V14.01,2013-04-26 10:56:00,
2013-04-26 07:01:00,32.1,29.2,30.43,WNW,302,0.0,0.0,89,0.00,,---,0.00,VWS V14.01,2013-04-26 11:01:00,
2013-04-26 07:06:00,32.1,29.2,30.44,WNW,302,0.0,0.0,89,0.00,,---,0.00,VWS V14.01,2013-04-26 11:06:00,
2013-04-26 07:11:00,32.0,29.1,30.44,WNW,286,0.0,0.0,89,0.00,,---,0.00,VWS V14.01,2013-04-26 11:11:00,
2013-04-26 07:16:00,32.0,29.4,30.44,WNW,286,0.0,0.0,90,0.00,,---,0.00,VWS V14.01,2013-04-26 11:16:00,
2013-04-26 07:21:00,32.0,29.4,30.44,WNW,286,0.0,0.0,90,0.00,,---,0.00,VWS V14.01,2013-04-26 11:21:00,
2013-04-26 07:26:00,32.1,29.5,30.45,WNW,286,0.0,0.0,90,0.00,,---,0.00,VWS V14.01,2013-04-26 11:26:00,
2013-04-26 07:31:00,32.2,29.6,30.45,WNW,286,0.0,0.0,90,0.00,,---,0.00,VWS V14.01,2013-04-26 11:31:00,
2013-04-26 07:36:00,32.4,30.1,30.45,WNW,286,0.0,0.0,91,0.00,,---,0.00,VWS V14.01,2013-04-26 11:36:00,
2013-04-26 07:41:00,32.6,30.3,30.45,WNW,286,0.0,0.0,91,0.00,,---,0.00,VWS V14.01,2013-04-26 11:41:00,
2013-04-26 07:46:00,33.1,31.0,30.45,WNW,286,0.0,0.0,92,0.00,,---,0.00,VWS V14.01,2013-04-26 11:46:00,
2013-04-26 07:51:00,33.5,31.4,30.46,WNW,286,0.0,0.0,92,0.00,,---,0.00,VWS V14.01,2013-04-26 11:51:00,
2013-04-26 07:56:00,33.9,31.8,30.46,WNW,286,0.0,0.0,92,0.00,,---,0.00,VWS V14.01,2013-04-26 11:56:00,
2013-04-26 08:01:00,34.6,32.8,30.46,WNW,298,0.0,0.0,93,0.00,,---,0.00,VWS V14.01,2013-04-26 12:01:00,
2013-04-26 08:07:00,35.1,33.3,30.46,WNW,298,0.0,0.0,93,0.00,,---,0.00,VWS V14.01,2013-04-26 12:07:00,
2013-04-26 08:12:00,36.2,34.6,30.46,WNW,298,0.0,0.0,94,0.00,,---,0.00,VWS V14.01,2013-04-26 12:12:00,
2013-04-26 08:17:00,37.3,36.0,30.46,WNW,298,0.0,0.0,95,0.00,,---,0.00,VWS V14.01,2013-04-26 12:17:00,
2013-04-26 08:22:00,38.0,36.4,30.46,NW,326,0.0,0.0,94,0.00,,---,0.00,VWS V14.01,2013-04-26 12:22:00,
2013-04-26 08:27:00,38.6,37.0,30.46,NW,326,0.0,1.0,94,0.00,,---,0.00,VWS V14.01,2013-04-26 12:27:00,
2013-04-26 08:32:00,39.2,37.9,30.46,NNW,333,0.0,0.0,95,0.00,,---,0.00,VWS V14.01,2013-04-26 12:32:00,
2013-04-26 08:37:00,39.9,38.6,30.46,NNE,29,0.0,2.0,95,0.00,,---,0.00,VWS V14.01,2013-04-26 12:37:00,
2013-04-26 08:41:00,40.5,39.2,30.46,NE,50,0.0,1.0,95,0.00,,---,0.00,VWS V14.01,2013-04-26 12:41:00,
2013-04-26 08:47:00,41.2,39.9,30.47,NE,46,0.0,3.0,95,0.00,,---,0.00,VWS V14.01,2013-04-26 12:47:00,
2013-04-26 08:52:00,41.9,40.6,30.47,NE,38,0.0,1.0,95,0.00,,---,0.00,VWS V14.01,2013-04-26 12:52:00,
2013-04-26 08:57:00,42.6,41.3,30.47,ENE,70,0.0,1.0,95,0.00,,---,0.00,VWS V14.01,2013-04-26 12:57:00,
2013-04-26 09:02:00,43.1,41.8,30.47,NNW,330,1.0,1.0,95,0.00,,---,0.00,VWS V14.01,2013-04-26 13:02:00,
2013-04-26 09:06:00,43.6,42.0,30.47,NE,42,1.0,2.0,94,0.00,,---,0.00,VWS V14.01,2013-04-26 13:06:00,
2013-04-26 09:11:00,44.3,42.7,30.47,East,85,0.0,3.0,94,0.00,,---,0.00,VWS V14.01,2013-04-26 13:11:00,
2013-04-26 09:16:00,45.1,43.5,30.48,East,100,0.0,3.0,94,0.00,,---,0.00,VWS V14.01,2013-04-26 13:16:00,
2013-04-26 09:21:00,45.9,43.7,30.47,East,100,0.0,1.0,92,0.00,,---,0.00,VWS V14.01,2013-04-26 13:21:00,
2013-04-26 09:26:00,46.5,43.7,30.48,NE,53,0.0,3.0,90,0.00,,---,0.00,VWS V14.01,2013-04-26 13:26:00,
2013-04-26 09:31:00,47.1,43.7,30.48,SSE,153,1.0,3.0,88,0.00,,---,0.00,VWS V14.01,2013-04-26 13:31:00,
2013-04-26 09:36:00,47.6,43.3,30.48,NE,55,0.0,2.0,85,0.00,,---,0.00,VWS V14.01,2013-04-26 13:36:00,
2013-04-26 09:41:00,48.4,43.2,30.47,East,80,2.0,2.0,82,0.00,,---,0.00,VWS V14.01,2013-04-26 13:41:00,
2013-04-26 09:46:00,49.3,42.7,30.47,East,86,3.0,4.0,78,0.00,,---,0.00,VWS V14.01,2013-04-26 13:46:00,
2013-04-26 09:51:00,50.0,41.7,30.47,North,360,1.0,4.0,73,0.00,,---,0.00,VWS V14.01,2013-04-26 13:51:00,
2013-04-26 09:56:00,50.7,41.7,30.47,ENE,64,1.0,3.0,71,0.00,,---,0.00,VWS V14.01,2013-04-26 13:56:00,
2013-04-26 10:01:00,51.5,41.3,30.47,East,81,0.0,3.0,68,0.00,,---,0.00,VWS V14.01,2013-04-26 14:01:00,
2013-04-26 10:06:00,52.1,41.5,30.47,NNW,337,0.0,2.0,67,0.00,,---,0.00,VWS V14.01,2013-04-26 14:06:00,
2013-04-26 10:11:00,52.5,41.1,30.47,NNE,26,0.0,2.0,65,0.00,,---,0.00,VWS V14.01,2013-04-26 14:11:00,
2013-04-26 10:16:00,53.0,40.8,30.47,NE,41,0.0,3.0,63,0.00,,---,0.00,VWS V14.01,2013-04-26 14:16:00,
2013-04-26 10:21:00,53.7,40.2,30.47,ENE,70,0.0,7.0,60,0.00,,---,0.00,VWS V14.01,2013-04-26 14:21:00,
2013-04-26 10:26:00,54.2,40.2,30.47,ENE,59,0.0,4.0,59,0.00,,---,0.00,VWS V14.01,2013-04-26 14:26:00,
2013-04-26 10:31:00,54.5,40.0,30.48,NE,40,2.0,4.0,58,0.00,,---,0.00,VWS V14.01,2013-04-26 14:31:00,
2013-04-26 10:36:00,54.8,39.9,30.48,NE,44,1.0,2.0,57,0.00,,---,0.00,VWS V14.01,2013-04-26 14:36:00,
2013-04-26 10:41:00,54.9,36.6,30.47,SE,143,0.0,2.0,50,0.00,,---,0.00,VWS V14.01,2013-04-26 14:41:00,
2013-04-26 10:46:00,55.0,39.2,30.47,East,82,2.0,4.0,55,0.00,,---,0.00,VWS V14.01,2013-04-26 14:46:00,
2013-04-26 10:51:00,55.4,39.5,30.47,East,82,1.0,5.0,55,0.00,,---,0.00,VWS V14.01,2013-04-26 14:51:00,
2013-04-26 10:56:00,55.7,39.3,30.47,ENE,74,0.0,2.0,54,0.00,,---,0.00,VWS V14.01,2013-04-26 14:56:00,
2013-04-26 11:01:00,56.0,40.1,30.47,ENE,59,0.0,4.0,55,0.00,,---,0.00,VWS V14.01,2013-04-26 15:01:00,
2013-04-26 11:06:00,56.5,39.6,30.47,East,80,2.0,6.0,53,0.00,,---,0.00,VWS V14.01,2013-04-26 15:06:00,
2013-04-26 11:11:00,56.8,38.4,30.47,East,80,0.0,3.0,50,0.00,,---,0.00,VWS V14.01,2013-04-26 15:11:00,
2013-04-26 11:16:00,57.1,40.2,30.47,ENE,64,1.0,2.0,53,0.00,,---,0.00,VWS V14.01,2013-04-26 15:16:00,
2013-04-26 11:21:00,57.4,37.9,30.47,ENE,78,3.0,6.0,48,0.00,,---,0.00,VWS V14.01,2013-04-26 15:21:00,
2013-04-26 11:26:00,57.6,36.4,30.47,ESE,105,0.0,1.0,45,0.00,,---,0.00,VWS V14.01,2013-04-26 15:26:00,
2013-04-26 11:31:00,57.8,37.2,30.47,WNW,284,0.0,1.0,46,0.00,,---,0.00,VWS V14.01,2013-04-26 15:31:00,
2013-04-26 11:36:00,57.8,37.7,30.47,ESE,116,1.0,5.0,47,0.00,,---,0.00,VWS V14.01,2013-04-26 15:36:00,
2013-04-26 11:41:00,57.8,39.8,30.47,WNW,296,4.0,4.0,51,0.00,,---,0.00,VWS V14.01,2013-04-26 15:41:00,
2013-04-26 11:46:00,57.7,36.5,30.47,WNW,284,4.0,4.0,45,0.00,,---,0.00,VWS V14.01,2013-04-26 15:46:00,
2013-04-26 11:51:00,57.7,37.6,30.47,WNW,293,1.0,3.0,47,0.00,,---,0.00,VWS V14.01,2013-04-26 15:51:00,
2013-04-26 11:56:00,57.5,36.9,30.47,WNW,293,1.0,2.0,46,0.00,,---,0.00,VWS V14.01,2013-04-26 15:56:00,
2013-04-26 12:01:00,57.3,37.3,30.47,ENE,60,1.0,3.0,47,0.00,,---,0.00,VWS V14.01,2013-04-26 16:01:00,
2013-04-26 12:06:00,57.1,36.5,30.47,NNE,26,0.0,4.0,46,0.00,,---,0.00,VWS V14.01,2013-04-26 16:06:00,
2013-04-26 12:11:00,56.8,36.8,30.47,North,5,2.0,2.0,47,0.00,,---,0.00,VWS V14.01,2013-04-26 16:11:00,
2013-04-26 12:16:00,56.3,36.9,30.47,NNE,20,0.0,0.0,48,0.00,,---,0.00,VWS V14.01,2013-04-26 16:16:00,
2013-04-26 12:47:00,57.3,38.3,30.46,WNW,295,1.0,3.0,49,0.00,,---,0.00,VWS V14.01,2013-04-26 16:47:00,
2013-04-26 12:52:00,57.8,37.7,30.46,WNW,291,0.0,6.0,47,0.00,,---,0.00,VWS V14.01,2013-04-26 16:52:00,
2013-04-26 12:57:00,58.2,36.4,30.46,WNW,293,1.0,5.0,44,0.00,,---,0.00,VWS V14.01,2013-04-26 16:57:00,
2013-04-26 13:02:00,58.7,36.9,30.46,WNW,291,0.0,3.0,44,0.00,,---,0.00,VWS V14.01,2013-04-26 17:02:00,
2013-04-26 13:07:00,58.8,38.6,30.46,SSE,148,2.0,5.0,47,0.00,,---,0.00,VWS V14.01,2013-04-26 17:07:00,
2013-04-26 13:12:00,58.7,35.7,30.46,South,172,2.0,5.0,42,0.00,,---,0.00,VWS V14.01,2013-04-26 17:12:00,
2013-04-26 13:17:00,58.6,36.8,30.45,WNW,294,0.0,2.0,44,0.00,,---,0.00,VWS V14.01,2013-04-26 17:17:00,
2013-04-26 13:22:00,59.1,38.4,30.44,ENE,59,1.0,4.0,46,0.00,,---,0.00,VWS V14.01,2013-04-26 17:22:00,
2013-04-26 13:27:00,59.6,39.4,30.44,SE,140,1.0,4.0,47,0.00,,---,0.00,VWS V14.01,2013-04-26 17:27:00,
2013-04-26 13:32:00,60.0,38.6,30.44,SE,136,0.0,3.0,45,0.00,,---,0.00,VWS V14.01,2013-04-26 17:32:00,
2013-04-26 13:37:00,60.2,37.6,30.44,SSE,164,0.0,3.0,43,0.00,,---,0.00,VWS V14.01,2013-04-26 17:37:00,
2013-04-26 13:42:00,60.4,39.0,30.44,ENE,73,0.0,3.0,45,0.00,,---,0.00,VWS V14.01,2013-04-26 17:42:00,
2013-04-26 13:47:00,60.9,37.7,30.44,West,261,2.0,4.0,42,0.00,,---,0.00,VWS V14.01,2013-04-26 17:47:00,
2013-04-26 13:52:00,61.3,39.2,30.44,WNW,287,7.0,7.0,44,0.00,,---,0.00,VWS V14.01,2013-04-26 17:52:00,
2013-04-26 13:57:00,61.7,40.7,30.44,NNE,13,0.0,5.0,46,0.00,,---,0.00,VWS V14.01,2013-04-26 17:57:00,
2013-04-26 14:02:00,62.0,41.0,30.43,NE,55,2.0,4.0,46,0.00,,---,0.00,VWS V14.01,2013-04-26 18:02:00,
2013-04-26 14:07:00,62.1,40.0,30.43,NNE,26,0.0,4.0,44,0.00,,---,0.00,VWS V14.01,2013-04-26 18:07:00,
2013-04-26 14:12:00,62.3,40.7,30.43,WNW,298,4.0,4.0,45,0.00,,---,0.00,VWS V14.01,2013-04-26 18:12:00,
2013-04-26 14:17:00,62.3,37.7,30.43,ENE,78,0.0,5.0,40,0.00,,---,0.00,VWS V14.01,2013-04-26 18:17:00,
2013-04-26 14:22:00,62.4,41.4,30.43,NNE,13,0.0,3.0,46,0.00,,---,0.00,VWS V14.01,2013-04-26 18:22:00,
2013-04-26 14:27:00,62.6,39.2,30.43,WNW,289,3.0,8.0,42,0.00,,---,0.00,VWS V14.01,2013-04-26 18:27:00,
2013-04-26 14:32:00,62.7,39.3,30.43,WNW,298,2.0,5.0,42,0.00,,---,0.00,VWS V14.01,2013-04-26 18:32:00,
2013-04-26 14:37:00,62.7,38.0,30.43,WSW,246,2.0,4.0,40,0.00,,---,0.00,VWS V14.01,2013-04-26 18:37:00,
2013-04-26 14:42:00,62.7,38.7,30.44,WNW,299,0.0,5.0,41,0.00,,---,0.00,VWS V14.01,2013-04-26 18:42:00,
2013-04-26 14:47:00,62.8,38.1,30.44,WNW,291,0.0,4.0,40,0.00,,---,0.00,VWS V14.01,2013-04-26 18:47:00,
2013-04-26 14:52:00,62.6,39.8,30.43,ESE,115,2.0,5.0,43,0.00,,---,0.00,VWS V14.01,2013-04-26 18:52:00,
2013-04-26 14:57:00,62.1,36.2,30.43,East,88,3.0,5.0,38,0.00,,---,0.00,VWS V14.01,2013-04-26 18:57:00,
2013-04-26 15:02:00,62.0,39.3,30.43,East,90,0.0,2.0,43,0.00,,---,0.00,VWS V14.01,2013-04-26 19:02:00,
2013-04-26 15:07:00,62.2,37.6,30.44,WNW,290,3.0,4.0,40,0.00,,---,0.00,VWS V14.01,2013-04-26 19:07:00,
2013-04-26 15:12:00,62.6,36.7,30.43,NW,312,2.0,7.0,38,0.00,,---,0.00,VWS V14.01,2013-04-26 19:12:00,
2013-04-26 15:17:00,62.7,36.1,30.42,SW,227,0.0,2.0,37,0.00,,---,0.00,VWS V14.01,2013-04-26 19:17:00,
2013-04-26 15:22:00,62.7,39.3,30.42,WNW,292,0.0,2.0,42,0.00,,---,0.00,VWS V14.01,2013-04-26 19:22:00,
2013-04-26 15:27:00,62.9,36.9,30.42,NW,315,4.0,4.0,38,0.00,,---,0.00,VWS V14.01,2013-04-26 19:27:00,
2013-04-26 15:32:00,62.9,37.6,30.42,SW,235,0.0,3.0,39,0.00,,---,0.00,VWS V14.01,2013-04-26 19:32:00,
2013-04-26 15:37:00,62.9,36.9,30.42,South,173,2.0,2.0,38,0.00,,---,0.00,VWS V14.01,2013-04-26 19:37:00,
2013-04-26 15:42:00,63.1,37.1,30.42,NW,307,0.0,4.0,38,0.00,,---,0.00,VWS V14.01,2013-04-26 19:42:00,
2013-04-26 15:47:00,63.4,38.0,30.41,WNW,287,1.0,4.0,39,0.00,,---,0.00,VWS V14.01,2013-04-26 19:47:00,
2013-04-26 15:52:00,63.5,37.5,30.42,West,271,0.0,5.0,38,0.00,,---,0.00,VWS V14.01,2013-04-26 19:52:00,
2013-04-26 15:57:00,63.7,36.3,30.41,South,178,3.0,5.0,36,0.00,,---,0.00,VWS V14.01,2013-04-26 19:57:00,
2013-04-26 16:02:00,63.6,35.5,30.41,SSW,202,0.0,3.0,35,0.00,,---,0.00,VWS V14.01,2013-04-26 20:02:00,
2013-04-26 16:07:00,63.3,33.7,30.40,NE,47,0.0,2.0,33,0.00,,---,0.00,VWS V14.01,2013-04-26 20:07:00,
2013-04-26 16:12:00,63.1,36.4,30.41,WSW,246,0.0,2.0,37,0.00,,---,0.00,VWS V14.01,2013-04-26 20:12:00,
2013-04-26 16:17:00,63.4,36.7,30.40,WNW,288,3.0,4.0,37,0.00,,---,0.00,VWS V14.01,2013-04-26 20:17:00,
2013-04-26 16:22:00,63.5,37.5,30.40,WNW,291,0.0,2.0,38,0.00,,---,0.00,VWS V14.01,2013-04-26 20:22:00,
2013-04-26 16:27:00,63.5,34.7,30.40,WSW,240,1.0,5.0,34,0.00,,---,0.00,VWS V14.01,2013-04-26 20:27:00,
2013-04-26 16:32:00,63.5,36.8,30.40,NNE,32,0.0,5.0,37,0.00,,---,0.00,VWS V14.01,2013-04-26 20:32:00,
2013-04-26 16:37:00,63.6,40.1,30.40,NNW,333,3.0,3.0,42,0.00,,---,0.00,VWS V14.01,2013-04-26 20:37:00,
2013-04-26 16:42:00,63.8,35.7,30.39,West,280,0.0,4.0,35,0.00,,---,0.00,VWS V14.01,2013-04-26 20:42:00,
2013-04-26 16:47:00,63.9,39.1,30.39,West,280,0.0,2.0,40,0.00,,---,0.00,VWS V14.01,2013-04-26 20:47:00,
2013-04-26 16:52:00,64.0,35.8,30.39,NE,41,0.0,2.0,35,0.00,,---,0.00,VWS V14.01,2013-04-26 20:52:00,
2013-04-26 16:57:00,64.1,38.7,30.39,North,11,0.0,2.0,39,0.00,,---,0.00,VWS V14.01,2013-04-26 20:57:00,
2013-04-26 17:02:00,64.4,37.6,30.38,ESE,119,0.0,2.0,37,0.00,,---,0.00,VWS V14.01,2013-04-26 21:02:00,
2013-04-26 17:07:00,64.6,37.1,30.38,WNW,288,4.0,6.0,36,0.00,,---,0.00,VWS V14.01,2013-04-26 21:07:00,
2013-04-26 17:12:00,64.7,35.7,30.38,ENE,78,1.0,5.0,34,0.00,,---,0.00,VWS V14.01,2013-04-26 21:12:00,
2013-04-26 17:17:00,64.3,36.1,30.38,East,98,0.0,3.0,35,0.00,,---,0.00,VWS V14.01,2013-04-26 21:17:00,
2013-04-26 17:22:00,64.1,35.9,30.38,East,98,0.0,4.0,35,0.00,,---,0.00,VWS V14.01,2013-04-26 21:22:00,
2013-04-26 17:27:00,64.0,35.8,30.38,East,89,0.0,2.0,35,0.00,,---,0.00,VWS V14.01,2013-04-26 21:27:00,
2013-04-26 17:32:00,64.2,37.4,30.37,East,89,1.0,1.0,37,0.00,,---,0.00,VWS V14.01,2013-04-26 21:32:00,
2013-04-26 17:37:00,64.4,36.9,30.38,NE,51,0.0,2.0,36,0.00,,---,0.00,VWS V14.01,2013-04-26 21:37:00,
2013-04-26 17:42:00,64.5,34.8,30.38,NW,312,0.0,3.0,33,0.00,,---,0.00,VWS V14.01,2013-04-26 21:42:00,
2013-04-26 17:47:00,64.3,35.4,30.38,NW,312,0.0,1.0,34,0.00,,---,0.00,VWS V14.01,2013-04-26 21:47:00,
2013-04-26 17:52:00,64.2,34.5,30.37,NNW,337,2.0,3.0,33,0.00,,---,0.00,VWS V14.01,2013-04-26 21:52:00,
2013-04-26 17:57:00,64.3,36.1,30.38,NW,312,0.0,0.0,35,0.00,,---,0.00,VWS V14.01,2013-04-26 21:57:00,
2013-04-26 18:02:00,64.5,37.0,30.38,NW,312,0.0,2.0,36,0.00,,---,0.00,VWS V14.01,2013-04-26 22:02:00,
2013-04-26 18:07:00,64.6,35.6,30.38,West,273,0.0,2.0,34,0.00,,---,0.00,VWS V14.01,2013-04-26 22:07:00,
2013-04-26 18:12:00,64.6,34.1,30.37,West,269,0.0,2.0,32,0.00,,---,0.00,VWS V14.01,2013-04-26 22:12:00,
2013-04-26 18:17:00,64.3,34.6,30.37,West,259,0.0,2.0,33,0.00,,---,0.00,VWS V14.01,2013-04-26 22:17:00,
2013-04-26 18:22:00,63.9,35.0,30.38,WNW,294,0.0,3.0,34,0.00,,---,0.00,VWS V14.01,2013-04-26 22:22:00,
2013-04-26 18:27:00,63.5,35.4,30.37,WNW,299,0.0,2.0,35,0.00,,---,0.00,VWS V14.01,2013-04-26 22:27:00,
2013-04-26 18:32:00,63.0,35.7,30.37,WNW,299,0.0,0.0,36,0.00,,---,0.00,VWS V14.01,2013-04-26 22:32:00,
2013-04-26 18:37:00,62.4,34.4,30.37,West,276,0.0,1.0,35,0.00,,---,0.00,VWS V14.01,2013-04-26 22:37:00,
2013-04-26 18:42:00,62.0,34.8,30.38,West,276,0.0,1.0,36,0.00,,---,0.00,VWS V14.01,2013-04-26 22:42:00,
2013-04-26 18:47:00,61.6,34.4,30.37,West,276,1.0,1.0,36,0.00,,---,0.00,VWS V14.01,2013-04-26 22:47:00,
2013-04-26 18:52:00,61.1,34.0,30.37,West,277,0.0,3.0,36,0.00,,---,0.00,VWS V14.01,2013-04-26 22:52:00,
2013-04-26 18:57:00,60.6,34.2,30.38,West,277,0.0,0.0,37,0.00,,---,0.00,VWS V14.01,2013-04-26 22:57:00,
2013-04-26 19:02:00,60.2,35.8,30.37,West,277,0.0,0.0,40,0.00,,---,0.00,VWS V14.01,2013-04-26 23:02:00,
2013-04-26 19:07:00,59.8,34.2,30.38,West,277,0.0,0.0,38,0.00,,---,0.00,VWS V14.01,2013-04-26 23:07:00,
2013-04-26 19:12:00,59.3,36.2,30.38,West,277,0.0,0.0,42,0.00,,---,0.00,VWS V14.01,2013-04-26 23:12:00,
2013-04-26 19:17:00,58.9,35.9,30.38,West,277,0.0,0.0,42,0.00,,---,0.00,VWS V14.01,2013-04-26 23:17:00,
2013-04-26 19:22:00,58.5,35.5,30.38,West,277,0.0,0.0,42,0.00,,---,0.00,VWS V14.01,2013-04-26 23:22:00,
2013-04-26 19:27:00,58.1,33.9,30.38,West,277,0.0,0.0,40,0.00,,---,0.00,VWS V14.01,2013-04-26 23:27:00,
2013-04-26 19:32:00,57.7,36.0,30.38,West,277,0.0,0.0,44,0.00,,---,0.00,VWS V14.01,2013-04-26 23:32:00,
2013-04-26 19:37:00,57.1,37.1,30.38,West,277,0.0,0.0,47,0.00,,---,0.00,VWS V14.01,2013-04-26 23:37:00,
2013-04-26 19:42:00,56.5,38.1,30.38,West,277,0.0,0.0,50,0.00,,---,0.00,VWS V14.01,2013-04-26 23:42:00,
2013-04-26 19:47:00,55.9,38.5,30.38,West,277,0.0,0.0,52,0.00,,---,0.00,VWS V14.01,2013-04-26 23:47:00,
2013-04-26 19:52:00,55.3,38.5,30.38,West,277,0.0,0.0,53,0.00,,---,0.00,VWS V14.01,2013-04-26 23:52:00,
2013-04-26 20:30:00,50.4,38.3,30.39,West,277,0.0,0.0,63,0.00,,---,0.00,VWS V14.01,2013-04-27 00:30:00,
2013-04-26 20:35:00,49.8,37.7,30.39,West,277,0.0,0.0,63,0.00,,---,0.00,VWS V14.01,2013-04-27 00:35:00,
2013-04-26 20:40:00,49.2,37.6,30.39,West,277,0.0,0.0,64,0.00,,---,0.00,VWS V14.01,2013-04-27 00:40:00,
2013-04-26 20:45:00,48.7,37.5,30.39,West,277,0.0,0.0,65,0.00,,---,0.00,VWS V14.01,2013-04-27 00:45:00,
2013-04-26 20:50:00,48.2,37.4,30.39,West,277,0.0,0.0,66,0.00,,---,0.00,VWS V14.01,2013-04-27 00:50:00,
2013-04-26 20:55:00,47.7,37.3,30.39,West,277,0.0,0.0,67,0.00,,---,0.00,VWS V14.01,2013-04-27 00:55:00,
2013-04-26 21:00:00,47.2,37.2,30.39,West,277,0.0,0.0,68,0.00,,---,0.00,VWS V14.01,2013-04-27 01:00:00,
2013-04-26 21:05:00,46.8,36.8,30.39,West,277,0.0,0.0,68,0.00,,---,0.00,VWS V14.01,2013-04-27 01:05:00,
2013-04-26 21:10:00,46.3,36.7,30.39,West,277,0.0,0.0,69,0.00,,---,0.00,VWS V14.01,2013-04-27 01:10:00,
2013-04-26 21:15:00,45.9,36.7,30.39,West,277,0.0,0.0,70,0.00,,---,0.00,VWS V14.01,2013-04-27 01:15:00,
2013-04-26 21:20:00,45.5,36.7,30.39,West,277,0.0,0.0,71,0.00,,---,0.00,VWS V14.01,2013-04-27 01:20:00,
2013-04-26 21:25:00,45.0,36.2,30.40,West,277,0.0,0.0,71,0.00,,---,0.00,VWS V14.01,2013-04-27 01:25:00,
2013-04-26 21:30:00,44.7,36.2,30.40,West,277,0.0,0.0,72,0.00,,---,0.00,VWS V14.01,2013-04-27 01:30:00,
2013-04-26 21:35:00,44.3,35.9,30.40,West,277,0.0,0.0,72,0.00,,---,0.00,VWS V14.01,2013-04-27 01:35:00,
2013-04-26 21:40:00,43.9,35.8,30.40,West,277,0.0,0.0,73,0.00,,---,0.00,VWS V14.01,2013-04-27 01:40:00,
2013-04-26 21:45:00,43.6,35.5,30.40,West,277,0.0,0.0,73,0.00,,---,0.00,VWS V14.01,2013-04-27 01:45:00,
2013-04-26 21:50:00,43.3,35.6,30.40,West,277,0.0,0.0,74,0.00,,---,0.00,VWS V14.01,2013-04-27 01:50:00,
2013-04-26 21:55:00,43.0,35.3,30.40,West,277,0.0,0.0,74,0.00,,---,0.00,VWS V14.01,2013-04-27 01:55:00,
2013-04-26 22:00:00,42.7,35.0,30.40,West,277,0.0,0.0,74,0.00,,---,0.00,VWS V14.01,2013-04-27 02:00:00,
2013-04-26 22:05:00,42.4,35.0,30.40,West,277,0.0,0.0,75,0.00,,---,0.00,VWS V14.01,2013-04-27 02:05:00,
2013-04-26 22:10:00,42.1,34.8,30.40,West,277,0.0,0.0,75,0.00,,---,0.00,VWS V14.01,2013-04-27 02:10:00,
2013-04-26 22:15:00,41.9,34.9,30.40,West,277,0.0,0.0,76,0.00,,---,0.00,VWS V14.01,2013-04-27 02:15:00,
2013-04-26 22:20:00,41.6,34.6,30.40,West,277,0.0,0.0,76,0.00,,---,0.00,VWS V14.01,2013-04-27 02:20:00,
2013-04-26 22:25:00,41.3,34.7,30.40,West,277,0.0,0.0,77,0.00,,---,0.00,VWS V14.01,2013-04-27 02:25:00,
2013-04-26 22:30:00,41.1,34.5,30.40,West,277,0.0,0.0,77,0.00,,---,0.00,VWS V14.01,2013-04-27 02:30:00,
2013-04-26 22:35:00,40.8,34.2,30.40,West,277,0.0,0.0,77,0.00,,---,0.00,VWS V14.01,2013-04-27 02:35:00,
2013-04-26 22:40:00,40.6,34.3,30.40,West,277,0.0,0.0,78,0.00,,---,0.00,VWS V14.01,2013-04-27 02:40:00,
2013-04-26 22:45:00,40.4,34.1,30.41,West,277,0.0,0.0,78,0.00,,---,0.00,VWS V14.01,2013-04-27 02:45:00,
2013-04-26 22:50:00,40.2,33.9,30.40,West,277,0.0,0.0,78,0.00,,---,0.00,VWS V14.01,2013-04-27 02:50:00,
2013-04-26 22:55:00,40.0,33.7,30.40,West,277,0.0,0.0,78,0.00,,---,0.00,VWS V14.01,2013-04-27 02:55:00,
2013-04-26 23:00:00,39.7,33.7,30.40,West,277,0.0,0.0,79,0.00,,---,0.00,VWS V14.01,2013-04-27 03:00:00,
2013-04-26 23:05:00,39.6,33.6,30.40,West,277,0.0,0.0,79,0.00,,---,0.00,VWS V14.01,2013-04-27 03:05:00,
2013-04-26 23:10:00,39.3,33.7,30.40,West,277,0.0,0.0,80,0.00,,---,0.00,VWS V14.01,2013-04-27 03:10:00,
2013-04-26 23:15:00,39.1,33.5,30.40,West,277,0.0,0.0,80,0.00,,---,0.00,VWS V14.01,2013-04-27 03:15:00,
2013-04-26 23:20:00,38.9,33.3,30.40,West,277,0.0,0.0,80,0.00,,---,0.00,VWS V14.01,2013-04-27 03:20:00,
2013-04-26 23:25:00,38.7,33.1,30.40,West,277,0.0,0.0,80,0.00,,---,0.00,VWS V14.01,2013-04-27 03:25:00,
2013-04-26 23:30:00,38.6,33.3,30.40,West,277,0.0,0.0,81,0.00,,---,0.00,VWS V14.01,2013-04-27 03:30:00,
2013-04-26 23:35:00,38.4,33.1,30.40,West,277,0.0,0.0,81,0.00,,---,0.00,VWS V14.01,2013-04-27 03:35:00,
2013-04-26 23:40:00,38.2,33.2,30.40,West,277,0.0,0.0,82,0.00,,---,0.00,VWS V14.01,2013-04-27 03:40:00,
2013-04-26 23:45:00,38.0,33.0,30.40,West,277,0.0,0.0,82,0.00,,---,0.00,VWS V14.01,2013-04-27 03:45:00,
2013-04-26 23:50:00,37.9,32.9,30.40,West,277,0.0,0.0,82,0.00,,---,0.00,VWS V14.01,2013-04-27 03:50:00,
2013-04-26 23:55:00,37.7,32.7,30.40,West,277,0.0,0.0,82,0.00,,---,0.00,VWS V14.01,2013-04-27 03:55:00,